sat.trackr.live / text

‹ back to catalog

STARLINK-11466 [DTC]

NORAD 62220 · 2024-231C

PAYLOAD ACTIVE UNKNOWN

§ Identity

Operator
Country
US
Launch date
2024-12-05
Launch site
AFWTR
Launch vehicle
Mass (kg)
RCS (m²)

Purposes: comms

External: N2YO · Heavens-Above · Gunter

§ Orbital elements

Epoch: 2026-05-25T02:56:01.477248Z

Period
91.73 min
Inclination
53.1564°
Eccentricity
0.0000928
Mean motion
15.69757094 rev/d
Perigee alt
359.0 km
Apogee alt
360.2 km
Semi-major
6,737.7 km
B*
1.2435e-3
RAAN
84.6621°
Arg perigee
75.2710°
Mean anomaly
284.8411°
Rev number
8,541

§ Raw data

STARLINK-11466 [DTC]1 62220U 24231C   26145.12223932  .00153171  00000+0  12435-2 0  99902 62220  53.1564  84.6621 0000928  75.2710 284.8411 15.69757094 85415

JSON: /api/v1/satellites/62220 · /tle

For live sub-satellite position, see the globe view (requires WebGL).

§ Visibility from observer

Set your observer location to see the next 7 days of passes ≥ 10°. The values pass through the URL so the page stays shareable.

No JS? Fill the form by hand. The geolocation button needs JavaScript.